Home > Weather > Longyearbyen > Past weeks

Flag for Norway Weather for the Past 2 Weeks in Longyearbyen, Svalbard, Norway

Now
32 °F

Partly sunny.


Feels Like: 32 °F
Forecast: 33 / 36 °F
Wind: 2 mph from North

Location: Svalbard Lufthavn

Current Time: May 1, 2016 at 8:43:44 AM

Latest Report: May 1, 2016 at 7:50 AM


Visibility: N/A

Pressure: 30.18 "Hg

Humidity: 75%

Dew Point: 25 °F

Location of LongyearbyenLocation

Historic Weather in Longyearbyen — Graph

°F

Longyearbyen Temperature Yesterday

Maximum temperature yesterday: 32 °F (at 11:20 AM)
Minimum temperature yesterday: 25 °F (at 2:50 AM)
Average temperature yesterday: 30 °F

High & Low Weather Summary for the Past Weeks

 TemperatureHumidityPressure
High37 °F (Apr 29, 3:20 PM)86% (Apr 25, 11:50 PM)30.60 "Hg (Apr 25, 11:50 PM)
Low9 °F (Apr 17, 2:50 AM)53% (Apr 16, 3:50 PM)29.74 "Hg (Apr 18, 7:50 PM)
Average23 °F70%30.13 "Hg
* Reported Apr 16 5:50 AM — May 1 5:50 AM, Longyearbyen, Weather by CustomWeather, © 2016

Note: Actual official high and low records may vary slightly from our data, if they occured in-between our weather recording intervals... More about our weather records

Advertising

Longyearbyen Weather History for the Previous 24 Hours

Scroll right to see more
 ConditionsComfort  
Time TempWeatherWind HumidityBarometerVisibility
5:50 AM
Sun, May 1
30 °FPartly sunny.1 mph86%30.21 "HgN/A
4:50 AM30 °FPartly sunny.5 mph86%30.24 "HgN/A
2:50 AM30 °FPartly sunny.9 mph86%30.27 "HgN/A
1:50 AM30 °FPartly sunny.5 mph86%30.27 "HgN/A
12:50 AM30 °FPartly sunny.10 mph86%30.27 "HgN/A
11:50 PM
Sat, Apr 30
30 °FBroken clouds.8 mph86%30.30 "HgN/A
10:50 PM30 °FPartly sunny.2 mph86%30.33 "HgN/A
9:50 PM30 °FPartly sunny.3 mph86%30.33 "HgN/A
8:50 PM30 °FPartly sunny.3 mph86%30.36 "HgN/A
7:50 PM32 °FPartly sunny.3 mph80%30.36 "HgN/A
7:20 PM32 °FPartly sunny.3 mph80%30.36 "HgN/A
6:50 PM32 °FPartly sunny.3 mph75%30.39 "HgN/A
5:50 PM32 °FScattered clouds.2 mph75%30.39 "HgN/A
4:50 PM32 °FScattered clouds.1 mph75%30.42 "HgN/A
3:50 PM32 °FPassing clouds.3 mph75%30.42 "HgN/A
3:00 PM32 °FSunny.6 mph80%30.45 "Hg10 mi
1:50 PM32 °FSunny.3 mph80%30.45 "Hg10 mi
12:50 PM32 °FSunny.2 mph69%30.48 "Hg10 mi
12:20 PM32 °FSunny.1 mph69%30.48 "Hg10 mi
11:50 AM32 °FSunny.1 mph69%30.48 "Hg10 mi
11:20 AM32 °FSunny.2 mph75%30.48 "Hg10 mi
10:50 AM30 °FSunny.3 mph75%30.48 "Hg10 mi
10:20 AM30 °FSunny.6 mph75%30.48 "Hg10 mi
9:50 AM28 °FSunny.5 mph80%30.51 "Hg10 mi
9:20 AM28 °FSunny.6 mph80%30.51 "Hg10 mi
8:50 AM28 °FSunny.7 mph74%30.51 "Hg10 mi
Weather by CustomWeather, © 2016

See weather overviewHow to use our weather pages